Lexington Weather

Lexington, Massachusetts, USA

41°F
4/22/2024 8:03am 
  • Lexington Conditions: Clear
  • Temperature: 40.5°F / 4.7°CWarmer 3.3°F than last hour.
  • Dew Point: 28.0°FDecreased 1.1°Fsince last hour.
  • Relative Humidity: 61%Decreased 11.0% since last hour.
  • Wind: Calm, 10-min avg: Calm, gust: 5 mph
  • Barometer: 29.95 in Steady
  • Visibility: 10 miles
  • Rain Today: 0.00 in
  •   

Regional Weather Roundup
for Boston, MA

        
000
ASUS41 KBOX 211310
RWRBOX

REGIONAL WEATHER ROUNDUP
NATIONAL WEATHER SERVICE BOSTON/NORTON MA
900 AM EDT SUN APR 21 2024

NOTE:  "FAIR" INDICATES FEW OR NO CLOUDS BELOW 12,000 FEET WITH NO 
SIGNIFICANT WEATHER AND/OR OBSTRUCTIONS TO VISIBILITY.

MAZALL-211400-
EASTERN MASSACHUSETTS
  
CITY           SKY/WX    TMP DP  RH WIND       PRES   REMARKS
BOSTON         PTSUNNY   47  28  47 VRB7      29.98F                  
BEVERLY        SUNNY     46  29  51 NW8       29.97S                  
LAWRENCE       SUNNY     46  27  47 VRB3      29.98F                  
BEDFORD        SUNNY     46  29  51 VRB3      29.97F                  
NORWOOD        SUNNY     47  29  49 W5        29.99S                  
MARSHFIELD     SUNNY     46  30  53 NW6       29.98F                  
PLYMOUTH       SUNNY     46  31  55 NW9       29.97F                  
TAUNTON        SUNNY     49  30  48 W6        29.98F                  
NEW BEDFORD    SUNNY     46  31  55 NW7       29.98F                  
$$

MAZALL-211400-
CAPE COD AND THE ISLANDS
  
CITY           SKY/WX    TMP DP  RH WIND       PRES   REMARKS
FALMOUTH       SUNNY     45  28  53 NW7       29.99S                  
HYANNIS        SUNNY     45  30  55 NW7       29.95F                  
CHATHAM        SUNNY     47  32  56 VRB5      29.98S                  
PROVINCETOWN   SUNNY     45  34  65 W12       29.98F                  
NANTUCKET      SUNNY     47  33  58 NW13      29.98F                  
MARTHAS VNYRD  SUNNY     47  32  56 W8        29.98F                  
$$
 
MAZALL-211400-
CENTRAL AND WESTERN MASSACHUSETTS
  
CITY           SKY/WX    TMP DP  RH WIND       PRES   REMARKS
WORCESTER      SUNNY     42  24  49 W12       29.96S                  
FITCHBURG      SUNNY     46  26  45 NW10      29.98S                  
ORANGE         MOSUNNY   43  27  53 W7        29.98F                  
SPRINGFIELD    MOSUNNY   46  28  50 CALM      29.98F                  
WESTFIELD      MOSUNNY   45  26  47 W8        30.01R                  
NORTH ADAMS    MOSUNNY   43  29  57 VRB3      29.99F                  
PITTSFIELD     MOSUNNY   40  27  59 NW10      29.97S                  
$$
 
RIZALL-211400-
RHODE ISLAND
  
CITY           SKY/WX    TMP DP  RH WIND       PRES   REMARKS
PROVIDENCE     PTSUNNY   46  29  51 NW7       29.99F                  
NEWPORT        SUNNY     44  31  60 NW8       29.98F                  
BLOCK ISLAND   SUNNY     44  31  60 NW7       30.02S                  
SMITHFIELD     SUNNY     45  29  53 VRB5      29.99F                  
WESTERLY       MOSUNNY   45  30  55 VRB7      30.00F                  
$$
 
CTZALL-211400-
CONNECTICUT
  
CITY           SKY/WX    TMP DP  RH WIND       PRES   REMARKS
BRADLEY INTL   PTSUNNY   48  27  44 NW7       30.02S                  
HARTFORD       MOSUNNY   45  28  51 NW7       30.02F                  
PLAINVILLE     FAIR      45  26  47 NW6       30.02S                  
BRIDGEPORT     MOSUNNY   47  27  45 W8        30.03F                  
DANBURY        MOSUNNY   45  26  47 NW6       30.03F                  
GROTON         MOSUNNY   47  31  53 NW9G20    30.00F                  
NEW HAVEN      MOSUNNY   48  29  47 VRB6      30.02F                  
CHESTER        MOSUNNY   45  25  45 NW12G18   30.00F                  
MERIDEN        MOSUNNY   44  25  47 NW6       30.02F                  
WILLIMANTIC    MOSUNNY   44  28  53 NW8       30.01F                  
OXFORD         MOSUNNY   41  26  55 NW6       30.02F                  
$$

MEZ002-015-021-024-NHZ003-005-008-011-012-014-VTZ005-008-211400-
NORTHERN NEW ENGLAND
  
CITY           SKY/WX    TMP DP  RH WIND       PRES   REMARKS
PORTLAND ME    MOSUNNY   46  31  55 W7        29.93S                  
BANGOR ME      SUNNY     46  33  60 W10       29.88F                  
CONCORD NH     SUNNY     45  27  49 NW13      29.94F                  
MANCHESTER NH  MOSUNNY   47  26  44 CALM      29.95F                  
NASHUA NH      SUNNY     47  26  44 W6        29.97F                  
PORTSMOUTH NH  MOSUNNY   47  28  46 W7        29.95S                  
JAFFREY NH     MOSUNNY   43  24  47 W8        29.95F                  
KEENE NH       SUNNY     41  27  57 SE3       29.97F                  
BURLINGTON VT  PTSUNNY   43  27  53 W7        29.94F                  
MT. WASHINGTON FOG       16  16 100 W28         N/A  VSB 1/16WCI  -4  
$$

NYZ052-076-211400-
EASTERN NEW YORK
  
CITY           SKY/WX    TMP DP  RH WIND       PRES   REMARKS
ALBANY         PTSUNNY   46  29  51 W8        30.02F                  
NEW YORK CITY  PTSUNNY   47  25  42 NW7       30.06S                  
$$
 
ANZALL-211400-
MARINE OBSERVATIONS
  
STATION/POSITION TIME  TEMP    WIND        PRES    VSBY  WAVE
                       AIR SEA DIR/SP/G                  HT/PER
                 (UTC) (F)     (DEG/KT/KT) (MB)    (MI)  (FT/S)
BOSTON BUOY      1250   43     280/ 10/ 12 1014.7F         2/ 8
BUZZARDS BAY     1200   42     310/ 11/ 13 1016.3S
NANTUCKET SOUND  1250   45 48  320/ 10/ 14 1014.7F         1/ 2
MASS BAY-STELLWA 1104   43 46  280/ 12/ 16 1015.0R  1 7/8  1/ 3
ISLE OF SHOALS   1200   42     270/ 11/ 11 1014.0R
S OF BLOCK IS    1256      45                N/A           3/ 8
$$

......................KEY.........................
  SKY/WX - SKY CONDITION/PRESENT WEATHER
  TMP    - TEMPERATURE IN FAHRENHEIT
  DWPT   - DEWPOINT IN FAHRENHEIT
  RH     - RELATIVE HUMIDITY IN PERCENT
  WIND   - DIRECTION AND SPEED IN MPH
  PRES   - MEAN SEA LEVEL PRESSURE IN INCHES OF HG
  WCI    - WIND CHILL INDEX
  VSB    - VISIBILITY IN MILES
  HX     - HEAT INDEX
  TC     - TEMPERATURE IN CELSIUS
  VRB    - VARIABLE WIND DIRECTION
  N/A    - NOT AVAILABLE
  
      

Other recent Regional Weather Roundups

Mon Apr 22, 7:10am EDT

Mon Apr 22, 6:10am EDT

Mon Apr 22, 5:10am EDT

Mon Apr 22, 4:10am EDT

Mon Apr 22, 3:10am EDT

Mon Apr 22, 2:10am EDT

Mon Apr 22, 1:10am EDT

Mon Apr 22, 12:10am EDT

Sun Apr 21, 11:10pm EDT

Sun Apr 21, 10:10pm EDT

Sun Apr 21, 9:10pm EDT

Sun Apr 21, 8:10pm EDT

Sun Apr 21, 7:10pm EDT

Sun Apr 21, 6:10pm EDT

Sun Apr 21, 5:10pm EDT

Sun Apr 21, 4:10pm EDT

Sun Apr 21, 3:10pm EDT

Sun Apr 21, 2:10pm EDT

Sun Apr 21, 1:10pm EDT

Sun Apr 21, 12:10pm EDT

Sun Apr 21, 11:10am EDT

Sun Apr 21, 10:10am EDT

Sun Apr 21, 8:10am EDT

Sun Apr 21, 7:10am EDT

Sun Apr 21, 6:10am EDT

Sun Apr 21, 5:10am EDT

Sun Apr 21, 4:10am EDT

Sun Apr 21, 3:10am EDT

Sun Apr 21, 2:10am EDT

Sun Apr 21, 1:10am EDT

Sun Apr 21, 12:10am EDT

Sat Apr 20, 11:10pm EDT

Sat Apr 20, 10:10pm EDT

Sat Apr 20, 9:10pm EDT

Sat Apr 20, 8:10pm EDT

Sat Apr 20, 7:10pm EDT

Sat Apr 20, 6:10pm EDT

Sat Apr 20, 5:10pm EDT

Sat Apr 20, 4:10pm EDT

Sat Apr 20, 3:10pm EDT

Sat Apr 20, 2:10pm EDT

Sat Apr 20, 1:10pm EDT

Sat Apr 20, 12:10pm EDT

Sat Apr 20, 11:10am EDT

Sat Apr 20, 10:10am EDT

Sat Apr 20, 9:10am EDT

Sat Apr 20, 8:10am EDT

Sat Apr 20, 7:10am EDT

Sat Apr 20, 6:10am EDT

Sat Apr 20, 5:10am EDT

Sat Apr 20, 4:10am EDT

Sat Apr 20, 3:10am EDT

Sat Apr 20, 2:10am EDT

Sat Apr 20, 1:10am EDT

Sat Apr 20, 12:10am EDT

Fri Apr 19, 11:10pm EDT

Fri Apr 19, 10:10pm EDT

Fri Apr 19, 9:10pm EDT

Fri Apr 19, 8:10pm EDT

Fri Apr 19, 7:10pm EDT

Fri Apr 19, 6:10pm EDT

Fri Apr 19, 5:10pm EDT

Fri Apr 19, 4:10pm EDT

Fri Apr 19, 3:10pm EDT

Fri Apr 19, 2:10pm EDT

Fri Apr 19, 1:10pm EDT

Fri Apr 19, 12:10pm EDT

Fri Apr 19, 11:10am EDT

Fri Apr 19, 10:10am EDT

Fri Apr 19, 9:10am EDT

Fri Apr 19, 8:10am EDT

Fri Apr 19, 7:10am EDT

Fri Apr 19, 6:10am EDT

Fri Apr 19, 5:10am EDT

Fri Apr 19, 4:10am EDT

Fri Apr 19, 3:10am EDT

Fri Apr 19, 2:10am EDT

Fri Apr 19, 1:10am EDT

Fri Apr 19, 12:10am EDT

Thu Apr 18, 11:10pm EDT

Thu Apr 18, 10:10pm EDT

Thu Apr 18, 9:10pm EDT

Thu Apr 18, 8:10pm EDT

Thu Apr 18, 7:10pm EDT

Thu Apr 18, 6:10pm EDT

Thu Apr 18, 5:10pm EDT

Thu Apr 18, 4:10pm EDT

Thu Apr 18, 3:10pm EDT

Thu Apr 18, 2:10pm EDT

Thu Apr 18, 1:10pm EDT

Thu Apr 18, 12:10pm EDT

Thu Apr 18, 11:10am EDT

Thu Apr 18, 10:10am EDT

Thu Apr 18, 9:10am EDT

Thu Apr 18, 8:10am EDT

Thu Apr 18, 7:10am EDT

Thu Apr 18, 6:10am EDT

Thu Apr 18, 5:10am EDT

Thu Apr 18, 4:10am EDT

Thu Apr 18, 3:10am EDT

Thu Apr 18, 2:10am EDT

Thu Apr 18, 1:10am EDT

Thu Apr 18, 12:10am EDT

Wed Apr 17, 11:10pm EDT

Wed Apr 17, 10:10pm EDT

Wed Apr 17, 9:10pm EDT

Wed Apr 17, 8:10pm EDT

Wed Apr 17, 7:10pm EDT

Wed Apr 17, 6:10pm EDT

Wed Apr 17, 5:10pm EDT

Wed Apr 17, 4:10pm EDT

Wed Apr 17, 3:10pm EDT

Wed Apr 17, 2:10pm EDT

Wed Apr 17, 1:10pm EDT

Wed Apr 17, 12:10pm EDT

Wed Apr 17, 11:10am EDT

Wed Apr 17, 10:10am EDT

Wed Apr 17, 9:10am EDT

Wed Apr 17, 8:10am EDT

Wed Apr 17, 7:10am EDT

Wed Apr 17, 6:10am EDT

Wed Apr 17, 5:10am EDT

Wed Apr 17, 4:10am EDT

Wed Apr 17, 3:10am EDT

Wed Apr 17, 2:10am EDT

Wed Apr 17, 1:10am EDT

Wed Apr 17, 12:10am EDT

Tue Apr 16, 11:10pm EDT

Tue Apr 16, 10:10pm EDT

Tue Apr 16, 9:10pm EDT

Tue Apr 16, 8:10pm EDT

Tue Apr 16, 7:10pm EDT

Tue Apr 16, 6:10pm EDT

Tue Apr 16, 5:10pm EDT

Tue Apr 16, 4:10pm EDT

Tue Apr 16, 3:10pm EDT

Tue Apr 16, 2:10pm EDT

Tue Apr 16, 1:10pm EDT

Tue Apr 16, 12:10pm EDT

Tue Apr 16, 11:10am EDT

Tue Apr 16, 10:10am EDT

Tue Apr 16, 9:10am EDT

Tue Apr 16, 8:10am EDT

Tue Apr 16, 7:10am EDT

Tue Apr 16, 6:10am EDT

Tue Apr 16, 5:10am EDT

Tue Apr 16, 4:10am EDT

Tue Apr 16, 3:10am EDT

Tue Apr 16, 2:10am EDT

Tue Apr 16, 1:10am EDT

Tue Apr 16, 12:10am EDT

Mon Apr 15, 11:10pm EDT

Mon Apr 15, 10:10pm EDT

Mon Apr 15, 9:10pm EDT

Mon Apr 15, 8:10pm EDT

Mon Apr 15, 7:10pm EDT

Mon Apr 15, 6:10pm EDT

Mon Apr 15, 5:10pm EDT

Mon Apr 15, 4:10pm EDT

Mon Apr 15, 3:10pm EDT

Mon Apr 15, 2:10pm EDT

Mon Apr 15, 1:10pm EDT

Mon Apr 15, 12:10pm EDT

Mon Apr 15, 11:10am EDT

Mon Apr 15, 10:10am EDT

Mon Apr 15, 9:10am EDT

Mon Apr 15, 8:10am EDT